{"data":{"norad_id":64715,"epoch":"2026-09-20T09:37:48.149472Z","epoch_age_seconds":136184,"freshness":"FRESH","line1":"1 64715U 25142V   26263.40125173  .00011622  00000+0  40801-3 0  9996","line2":"2 64715  69.9991 181.2502 0003484 274.1627  85.9150 15.29587746 68685","mean_motion":15.29587746,"eccentricity":0.0003484,"inclination_deg":69.9991,"raan_deg":181.2502,"arg_perigee_deg":274.1627,"mean_anomaly_deg":85.915,"bstar":0.00040801,"rev_number":6868,"period_min":94.143013616951,"perigee_km":474.6554142774,"apogee_km":479.43210423045,"semimajor_km":6855.1807592539,"source":"CELESTRAK","updated_at":"2026-09-21T09:00:35.407063Z"}}